Back to catalog

OKEAN 1

AliveSciencePO
NORAD 19274·PAYLOAD·🇷🇺 Russia

Launched Jul 5, 1988 from Plesetsk Cosmodrome

Loading…

Next Passes (next 24 hours)

TLE

FreshSource: Space-Track

Epoch: Sep 14, 2026, 11:32 UTC

1 19274U 88056A   26257.48094716  .00007453  00000-0  21944-3 0  9993
2 19274  82.4662  70.6520 0011006 217.0830 142.9654 15.34815201 64014

Track OKEAN 1 in real time with AllMySat

Download on the App Store